| time (UTC) | temp F | wind direction | speed MPH | gust MPH | rain 1hr in | rain 24hr in | rain mn in | humidity % | barometer mb |
| 20260906084503 | 70 | 212 | 0.0 | 0.0 | 0.00 | 0.33 | 0.00 | 94 | 1010.7 |
| 20260906081505 | 70 | 212 | 0.0 | 0.0 | 0.00 | 0.33 | 0.00 | 94 | 1010.5 |
| 20260906080007 | 70 | 212 | 0.0 | 0.0 | 0.00 | 0.33 | 0.00 | 94 | 1010.6 |
| 20260906074508 | 70 | 212 | 0.0 | 0.0 | 0.00 | 0.33 | 0.00 | 94 | 1010.7 |
| 20260906071505 | 70 | 212 | 0.0 | 0.0 | 0.00 | 0.33 | 0.00 | 94 | 1010.8 |
| 20260906070005 | 70 | 212 | 0.0 | 0.0 | 0.00 | 0.33 | 0.00 | 94 | 1010.7 |
| 20260906064504 | 70 | 212 | 0.0 | 0.0 | 0.00 | 0.33 | 0.00 | 94 | 1010.8 |
| 20260906063007 | 70 | 212 | 0.0 | 0.0 | 0.00 | 0.33 | 0.00 | 94 | 1011.1 |
| 20260906061503 | 71 | 212 | 0.0 | 0.0 | 0.00 | 0.33 | 0.00 | 94 | 1011.3 |
| 20260906054508 | 71 | 212 | 0.0 | 0.0 | 0.00 | 0.33 | 0.00 | 94 | 1011.6 |
| 20260906053006 | 71 | 212 | 0.0 | 0.0 | 0.00 | 0.33 | 0.00 | 94 | 1011.6 |
| 20260906051504 | 71 | 212 | 0.0 | 0.0 | 0.00 | 0.33 | 0.00 | 94 | 1011.9 |
| 20260906044508 | 71 | 212 | 0.0 | 0.0 | 0.00 | 0.33 | 0.00 | 94 | 1011.9 |
| 20260906043006 | 71 | 212 | 0.0 | 0.0 | 0.00 | 0.33 | 0.00 | 93 | 1011.7 |
| 20260906041505 | 71 | 212 | 0.0 | 0.0 | 0.00 | 0.33 | 0.00 | 93 | 1011.5 |
| 20260906040011 | 71 | 212 | 0.0 | 0.0 | 0.00 | 0.33 | 0.00 | 93 | 1011.5 |
| 20260906034508 | 71 | 212 | 0.0 | 0.0 | 0.00 | 0.33 | 0.33 | 93 | 1011.7 |
| 20260906033007 | 72 | 212 | 0.0 | 0.0 | 0.00 | 0.33 | 0.33 | 93 | 1012.0 |
| 20260906031508 | 72 | 212 | 0.0 | 0.0 | 0.00 | 0.33 | 0.33 | 93 | 1011.9 |
| 20260906030006 | 72 | 212 | 0.0 | 0.0 | 0.00 | 0.33 | 0.33 | 93 | 1012.0 |
| 20260906024506 | 72 | 212 | 0.0 | 0.0 | 0.00 | 0.33 | 0.33 | 93 | 1012.1 |
| 20260906021506 | 72 | 212 | 0.0 | 0.0 | 0.00 | 0.33 | 0.33 | 93 | 1011.6 |
| 20260906020009 | 72 | 212 | 0.0 | 0.0 | 0.00 | 0.33 | 0.33 | 93 | 1011.4 |
| 20260906014508 | 72 | 212 | 0.0 | 0.0 | 0.00 | 0.33 | 0.33 | 93 | 1011.1 |
| 20260906010008 | 73 | 212 | 0.0 | 0.0 | 0.00 | 0.33 | 0.33 | 92 | 1010.9 |
| 20260906004505 | 73 | 212 | 0.0 | 0.0 | 0.01 | 0.33 | 0.33 | 92 | 1010.9 |
| 20260906003006 | 73 | 212 | 0.0 | 0.0 | 0.01 | 0.33 | 0.33 | 92 | 1011.0 |
| 20260906001507 | 72 | 212 | 0.0 | 1.0 | 0.01 | 0.33 | 0.33 | 91 | 1011.1 |
| 20260905234506 | 73 | 234 | 2.0 | 5.0 | 0.00 | 0.32 | 0.32 | 90 | 1011.5 |
| 20260905231506 | 73 | 126 | 1.0 | 5.0 | 0.00 | 0.32 | 0.32 | 89 | 1011.8 |
| 20260905230010 | 74 | 126 | 1.0 | 3.0 | 0.00 | 0.32 | 0.32 | 90 | 1011.7 |
| 20260905223009 | 74 | 150 | 1.0 | 3.0 | 0.32 | 0.32 | 0.32 | 89 | 1011.7 |
| 20260905221506 | 74 | 236 | 1.0 | 4.0 | 0.32 | 0.32 | 0.32 | 88 | 1011.9 |
| 20260905220006 | 74 | 319 | 1.0 | 4.0 | 0.32 | 0.32 | 0.32 | 84 | 1010.9 |
| 20260905214504 | 77 | 103 | 2.0 | 9.0 | 0.31 | 0.31 | 0.31 | 77 | 1010.0 |
| 20260905213005 | 87 | 129 | 7.0 | 26.0 | 0.00 | 0.00 | 0.00 | 60 | 1011.0 |
| 20260905211505 | 98 | 315 | 1.0 | 4.0 | 0.00 | 0.00 | 0.00 | 55 | 1009.6 |
| 20260905210008 | 99 | 313 | 1.0 | 4.0 | 0.00 | 0.00 | 0.00 | 54 | 1009.5 |
| 20260905204508 | 100 | 5 | 1.0 | 4.0 | 0.00 | 0.00 | 0.00 | 51 | 1009.7 |
| 20260905203005 | 100 | 331 | 2.0 | 6.0 | 0.00 | 0.00 | 0.00 | 52 | 1009.5 |
| 20260905200008 | 99 | 281 | 1.0 | 4.0 | 0.00 | 0.00 | 0.00 | 54 | 1009.5 |
| 20260905194506 | 98 | 189 | 2.0 | 6.0 | 0.00 | 0.00 | 0.00 | 54 | 1009.8 |
| 20260905191505 | 98 | 115 | 2.0 | 7.0 | 0.00 | 0.00 | 0.00 | 55 | 1010.2 |
| 20260905190008 | 98 | 213 | 2.0 | 9.0 | 0.00 | 0.00 | 0.00 | 57 | 1010.5 |
| 20260905184506 | 97 | 227 | 2.0 | 4.0 | 0.00 | 0.00 | 0.00 | 56 | 1010.8 |
| 20260905180008 | 97 | 12 | 1.0 | 5.0 | 0.00 | 0.00 | 0.00 | 58 | 1011.6 |
| 20260905174506 | 96 | 38 | 2.0 | 4.0 | 0.00 | 0.00 | 0.00 | 59 | 1011.6 |
| 20260905173005 | 95 | 290 | 2.0 | 6.0 | 0.00 | 0.00 | 0.00 | 61 | 1011.9 |
| 20260905171505 | 94 | 30 | 1.0 | 5.0 | 0.00 | 0.00 | 0.00 | 61 | 1012.2 |
| 20260905170006 | 94 | 323 | 2.0 | 4.0 | 0.00 | 0.00 | 0.00 | 64 | 1012.3 |
| 20260905163006 | 93 | 323 | 2.0 | 8.0 | 0.00 | 0.00 | 0.00 | 63 | 1013.0 |
| 20260905160010 | 91 | 298 | 3.0 | 8.0 | 0.00 | 0.00 | 0.00 | 69 | 1013.2 |
| 20260905154506 | 90 | 236 | 2.0 | 8.0 | 0.00 | 0.00 | 0.00 | 69 | 1013.4 |
| 20260905153008 | 90 | 211 | 2.0 | 9.0 | 0.00 | 0.00 | 0.00 | 72 | 1013.5 |
| 20260905151505 | 89 | 178 | 2.0 | 6.0 | 0.00 | 0.00 | 0.00 | 74 | 1013.6 |
| 20260905150007 | 87 | 328 | 1.0 | 6.0 | 0.00 | 0.00 | 0.00 | 77 | 1013.8 |
| 20260905144506 | 86 | 323 | 2.0 | 5.0 | 0.00 | 0.00 | 0.00 | 79 | 1013.9 |
| 20260905143007 | 85 | 215 | 1.0 | 4.0 | 0.00 | 0.00 | 0.00 | 82 | 1013.9 |
| 20260905141506 | 83 | 240 | 2.0 | 5.0 | 0.00 | 0.00 | 0.00 | 83 | 1014.0 |
| 20260905134506 | 81 | 259 | 2.0 | 7.0 | 0.00 | 0.00 | 0.00 | 87 | 1014.1 |
| 20260905133005 | 80 | 225 | 2.0 | 7.0 | 0.00 | 0.00 | 0.00 | 89 | 1014.1 |
| 20260905131505 | 79 | 234 | 3.0 | 6.0 | 0.00 | 0.00 | 0.00 | 92 | 1014.0 |
| 20260905130004 | 78 | 220 | 2.0 | 6.0 | 0.00 | 0.00 | 0.00 | 93 | 1014.1 |
| 20260905124504 | 77 | 234 | 2.0 | 4.0 | 0.00 | 0.00 | 0.00 | 94 | 1014.1 |
| 20260905121505 | 76 | 232 | 2.0 | 7.0 | 0.00 | 0.00 | 0.00 | 94 | 1014.0 |
| 20260905120006 | 76 | 215 | 1.0 | 5.0 | 0.00 | 0.00 | 0.00 | 94 | 1014.0 |
| 20260905114505 | 75 | 291 | 0.0 | 4.0 | 0.00 | 0.00 | 0.00 | 94 | 1013.9 |
| 20260905113004 | 75 | 227 | 0.0 | 0.0 | 0.00 | 0.00 | 0.00 | 93 | 1013.7 |
| 20260905111504 | 75 | 227 | 0.0 | 0.0 | 0.00 | 0.00 | 0.00 | 93 | 1013.7 |
| 20260905103004 | 75 | 227 | 0.0 | 0.0 | 0.00 | 0.00 | 0.00 | 93 | 1013.3 |
| 20260905101505 | 75 | 227 | 0.0 | 0.0 | 0.00 | 0.00 | 0.00 | 93 | 1013.2 |
| 20260905100007 | 76 | 227 | 0.0 | 0.0 | 0.00 | 0.00 | 0.00 | 93 | 1013.2 |
| 20260905093007 | 76 | 227 | 0.0 | 0.0 | 0.00 | 0.00 | 0.00 | 92 | 1013.1 |